Weather History for West Plains, MO

Change the Weather History Date:

Friday, November 23, 2012

  Actual Average Record
Temperature  
Mean Temperature 42 °F 44 °F  
Max Temperature 54 °F 53 °F 70 °F (1965)
Min Temperature 29 °F 34 °F 12 °F (1950)
Degree Days  
Heating Degree Days 23 21  
Month to date heating degree days 404 388  
Since 1 July heating degree days 772 691  
Cooling Degree Days 0 0  
Month to date cooling degree days 0 0  
Year to date cooling degree days 1739 1352  
Moisture  
Dew Point 29 °F    
Average Humidity 60    
Maximum Humidity 94    
Minimum Humidity 43    
Precipitation  
Precipitation 0.00 in 0.15 in 2.42 in (1951)
Month to date precipitation 1.63 3.47  
Year to date precipitation 29.89 41.47  
Sea Level Pressure  
Sea Level Pressure 30.29 in    
Wind  
Wind Speed 11 mph (NW)    
Max Wind Speed 21 mph    
Max Gust Speed 28 mph    
Visibility 10 miles    
Events      
T = Trace of Precipitation, MM = Missing Value Source: NWS Daily Summary

Daily Weather History Graph

Daily Weather History Graph

Search for Another Location

Airport:

Trip Planner

Search our weather history database for the weather conditions in past years. The results will help you decide how hot, cold, wet, or windy it might be!

Date:

Astronomy

Nov. 23, 2012 Rise Set
Actual Time 6:54 AM CST 4:53 PM CST
Civil Twilight 6:26 AM CST 5:21 PM CST
Nautical Twilight 5:54 AM CST 5:53 PM CST
Astronomical Twilight 5:23 AM CST 6:24 PM CST
Moon 2:03 PM CST 2:19 AM CST
Length of Visible Light 10h 55m
Length of Day
9h 58m
Waxing Gibbous, 80% of the Moon is Illuminated
Nov 23
Waxing Gibbous
Nov 28
Full
Dec 6
Last Quarter
Dec 13
New
Dec 19
First Quarter

Hourly Weather History & Observations

Time (CST) Temp. Windchill Dew Point Humidity Pressure Visibility Wind Dir Wind Speed Gust Speed Precip Events Conditions
12:22 AM 53.6 °F - 51.8 °F 94% 30.14 in 7.0 mi West 5.8 mph - N/A   Overcast
12:37 AM 53.6 °F - 51.8 °F 94% 30.15 in 9.0 mi NNW 11.5 mph 17.3 mph N/A   Overcast
12:53 AM 54.0 °F - 46.9 °F 77% 30.14 in 10.0 mi NNW 12.7 mph 18.4 mph 0.01 in   Overcast
1:53 AM 51.1 °F - 39.9 °F 66% 30.18 in 10.0 mi NNW 10.4 mph 18.4 mph N/A   Overcast
2:53 AM 48.0 °F - 35.1 °F 61% 30.20 in 10.0 mi NNW 8.1 mph 20.7 mph N/A   Clear
3:53 AM 46.0 °F 41.9 °F 33.1 °F 61% 30.22 in 10.0 mi NNW 8.1 mph - N/A   Clear
4:53 AM 45.0 °F 39.3 °F 33.1 °F 63% 30.25 in 10.0 mi NNW 11.5 mph 16.1 mph N/A   Scattered Clouds
5:53 AM 42.1 °F 39.2 °F 32.0 °F 67% 30.27 in 10.0 mi NW 4.6 mph - N/A   Clear
6:53 AM 39.0 °F 34.0 °F 30.9 °F 73% 30.27 in 10.0 mi WNW 6.9 mph - N/A   Clear
7:53 AM 42.1 °F 37.7 °F 33.1 °F 70% 30.29 in 10.0 mi WNW 6.9 mph - N/A   Clear
8:53 AM 46.9 °F - 30.0 °F 52% 30.29 in 10.0 mi WNW 15.0 mph 24.2 mph N/A   Clear
9:53 AM 46.9 °F - 28.0 °F 48% 30.32 in 10.0 mi NW 17.3 mph 25.3 mph N/A   Clear
10:53 AM 46.9 °F - 30.0 °F 52% 30.32 in 10.0 mi NW 16.1 mph 24.2 mph N/A   Partly Cloudy
11:53 AM 46.0 °F 39.0 °F 28.9 °F 51% 30.32 in 10.0 mi NW 17.3 mph 24.2 mph N/A   Mostly Cloudy
12:53 PM 46.0 °F 40.2 °F 28.0 °F 50% 30.32 in 10.0 mi NW 12.7 mph 21.9 mph N/A   Partly Cloudy
1:53 PM 46.0 °F 39.9 °F 27.0 °F 47% 30.31 in 10.0 mi NW 13.8 mph 21.9 mph N/A   Clear
2:53 PM 46.0 °F 39.6 °F 25.0 °F 44% 30.32 in 10.0 mi NW 15.0 mph 19.6 mph N/A   Clear
3:53 PM 44.1 °F 37.4 °F 23.0 °F 43% 30.34 in 10.0 mi WNW 13.8 mph 20.7 mph N/A   Clear
4:53 PM 39.9 °F 32.9 °F 21.9 °F 49% 30.35 in 10.0 mi NW 11.5 mph - N/A   Clear
5:53 PM 37.0 °F 30.4 °F 21.0 °F 52% 30.36 in 10.0 mi WNW 9.2 mph - N/A   Clear
6:53 PM 34.0 °F 28.8 °F 21.0 °F 59% 30.38 in 10.0 mi WNW 5.8 mph - N/A   Clear
7:53 PM 34.0 °F 27.2 °F 21.0 °F 59% 30.38 in 10.0 mi NW 8.1 mph - N/A   Clear
8:53 PM 33.1 °F 26.9 °F 19.9 °F 59% 30.38 in 10.0 mi NW 6.9 mph - N/A   Clear
9:53 PM 30.9 °F 24.3 °F 19.0 °F 61% 30.38 in 10.0 mi NW 6.9 mph - N/A   Clear
10:53 PM 30.9 °F 22.8 °F 17.1 °F 57% 30.37 in 10.0 mi NW 9.2 mph - N/A   Clear
11:53 PM 28.9 °F 23.9 °F 16.0 °F 58% 30.38 in 10.0 mi NNW 4.6 mph - N/A   Clear